Location: Aigremont
(47.7188°N, 3.8925°E)
Time: 07:53:01
(UTC+00:00)

Lacrosse 5 - Pass Details

Date: 18 February 2020
Orbit: 715 x 724 km, 57.0° (Epoch: 21 March)

Event Time Altitude Azimuth Distance (km) Brightness Sun altitude
Exits shadow 03:47:39 50° 60° (ENE) 914 2.6 -30.5°
Drops below altitude 10° 03:51:56 10° 107° (ESE) 2,207 5.0 -29.8°
Sets 03:54:21 0° 112° (ESE) 3,126 5.9 -29.4°
